7 * 24
多渠道服务支持
STARLINK-11465 是 SpaceX Starlink 项目中的一颗低轨通信卫星,属于第 5 批 Starlink 卫星任务(Transporter 5)的一部分,于 2023 年 11 月发射。该卫星运行在约 550 公里的轨道高度,旨在为全球用户提供高速互联网服务。Starlink 卫星采用先进推进系统,具备自主变轨和避碰能力,有助于减少太空碎片风险。该项目致力于构建全球覆盖的卫星互联网网络,提升偏远地区网络接入能力。
美国
(US)
| 数据来源 | 国际轨道数据 |
| 星历时间: | 2025-10-28T19:52:41+0800 22小时前 查看轨道信息 |
| 半长轴: | 6737.773km |
| 偏心率: | 0.0002913 |
| 轨道倾角: | 53.157° |
| 近地点辐角 | 150.367° |
| 升交点赤经 | 2.726° |
| 平近点角 | 209.751° |
| 近地点: | 357.675km |
| 远地点: | 361.601km |
| 周期: | 91.735分钟 |
| 每日圈数: | 15.697419 |